This is the latest recevied weather packets stored in our database for station/object K7CTM. If no packets are shown the sender has not sent any weather packets the latest 10 day(s).
| Time | Temp. | Humidity | Pressure | Rain* | Wind** | Luminosity | Snow |
|---|---|---|---|---|---|---|---|
| 1777592041 | 16.11° C | 30% | 1029.9 hPa | 0 mm | - | 343 W/m² | - |
| 1777591739 | 16.11° C | 28% | 1030 hPa | 0 mm | - | 286 W/m² | - |
| 1777591434 | 16.67° C | 28% | 1029.9 hPa | 0 mm | - | 380 W/m² | - |
| 1777591130 | 16.11° C | 28% | 1029.8 hPa | 0 mm | - | 410 W/m² | - |
| 1777590825 | 16.67° C | 28% | 1029.6 hPa | 0 mm | - | 184 W/m² | - |
| 1777590522 | 15.56° C | 29% | 1030 hPa | 0 mm | - | 426 W/m² | - |
| 1777590218 | 16.11° C | 26% | 1029.8 hPa | 0 mm | - | 133 W/m² | - |
| 1777589916 | 16.11° C | 28% | 1029.9 hPa | 0 mm | - | 506 W/m² | - |
| 1777589611 | 16.11° C | 28% | 1029.8 hPa | 0 mm | - | 517 W/m² | - |
| 1777589309 | 16.67° C | 29% | 1030 hPa | 0 mm | - | 503 W/m² | - |
| 1777589006 | 16.11° C | 29% | 1029.8 hPa | 0 mm | - | 515 W/m² | - |
| 1777588702 | 15° C | 29% | 1030.2 hPa | 0 mm | - | 527 W/m² | - |
| 1777588398 | 15° C | 32% | 1030.2 hPa | 0 mm | - | 111 W/m² | - |
| 1777588094 | 14.44° C | 32% | 1029.9 hPa | 0 mm | - | 563 W/m² | - |
| 1777587790 | 14.44° C | 29% | 1030.2 hPa | 0 mm | - | 105 W/m² | - |
| 1777587489 | 16.11° C | 28% | 1030.2 hPa | 0 mm | - | 589 W/m² | - |
| 1777587186 | 16.11° C | 29% | 1030.3 hPa | 0 mm | - | 617 W/m² | - |
| 1777586881 | 15.56° C | 28% | 1030.3 hPa | 0 mm | - | 611 W/m² | - |
| 1777586577 | 14.44° C | 32% | 1030.3 hPa | 0 mm | - | 625 W/m² | - |
| 1777586273 | 15° C | 30% | 1030.2 hPa | 0 mm | - | 100 W/m² | - |
| 1777585970 | 13.89° C | 30% | 1030.4 hPa | 0 mm | - | 133 W/m² | - |
| 1777585665 | 14.44° C | 31% | 1030.3 hPa | 0 mm | - | 137 W/m² | - |
| 1777585361 | 13.89° C | 31% | 1030.5 hPa | 0 mm | - | 717 W/m² | - |
| 1777585056 | 15.56° C | 29% | 1030.5 hPa | 0 mm | - | 133 W/m² | - |
| 1777584752 | 15.56° C | 29% | 1030.5 hPa | 0 mm | - | 712 W/m² | - |
* Rain latest hour (hover to see other rain measurements)
** Current wind speed in m/s (hover to see current wind gust speed)